Simultaneous Nadir Overpasses (SNOs) Predictions

Prediction of SNOs between GOES-15 and NPP Satellite Orbit:

Table of predicted SNOs for the next 14.0 days since TLE Epoch: 8/29/2014
Index Date Time (GOES-15) GOES-15 Lat,Lon NPP Lat,Lon Distance(km) Time Diff (sec)
1 08/30/2014 10:35:11 0.39,-134.85 0.44,-135.13 31.32 80
2 08/31/2014 10:13:48 0.39,-134.79 -0.54,-130.59 478.26 80
3 09/01/2014 22:35:47 -0.38,-134.74 -0.63,-135.90 132.41 80
4 09/02/2014 22:19:44 -0.38,-134.67 0.34,-131.36 376.95 80
5 09/04/2014 10:38:54 0.37,-134.53 0.84,-136.63 239.28 80
6 09/05/2014 10:20:10 0.37,-134.46 -0.14,-132.10 269.31 80
7 09/06/2014 22:42:10 -0.36,-134.39 -1.03,-137.41 343.66 80
8 09/07/2014 22:26:06 -0.36,-134.32 -0.05,-132.87 165.12 80
9 09/09/2014 10:45:17
